Location: Vancouver
(49.2500°N, 123.1330°W)
Time: 12:22:04
(UTC-07:00)

Iridium 21 - Visible Passes

Search period start: 01 May 2016 00:00
Search period end: 11 May 2016 00:00
Orbit: 776 x 779 km, 86.4° (Epoch: 01 May)

Date Brightness Start Highest point End Pass type
(mag) Time Alt. Az. Time Alt. Az. Time Alt. Az.
01 May 5.8 00:07:08 10° N 00:12:15 52° E 00:12:48 49° ESE visible
01 May 7.0 01:48:31 10° NNW 01:52:37 24° W 01:53:17 23° W visible
01 May 6.6 23:33:54 10° NNE 23:38:31 31° ENE 23:39:27 29° E visible
02 May 6.3 01:14:30 10° NNW 01:19:21 40° W 01:19:56 38° W visible
02 May 7.2 23:00:59 10° NNE 23:04:40 19° ENE 23:06:06 17° E visible
03 May 5.5 00:40:44 10° N 00:45:56 68° W 00:46:35 61° SW visible
03 May 7.9 02:25:13 10° WNW 02:25:37 10° WNW 02:26:01 10° WNW visible
03 May 7.7 22:29:01 10° NE 22:30:40 11° ENE 22:32:18 10° E visible
04 May 5.5 00:07:10 10° N 00:12:25 72° E 00:13:15 60° SE visible
04 May 7.4 01:49:09 10° NW 01:52:32 18° WNW 01:53:43 16° W visible
04 May 6.1 23:33:48 10° N 23:38:46 42° E 23:39:55 37° ESE visible
05 May 6.8 01:14:52 10° NNW 01:19:19 29° W 01:20:23 27° WSW visible
05 May 6.8 23:00:39 10° NNE 23:04:59 25° ENE 23:06:35 22° ESE visible
06 May 6.0 00:40:57 10° NNW 00:45:59 49° W 00:47:04 42° WSW visible
06 May 7.4 22:27:58 10° NNE 22:31:04 16° ENE 22:33:16 12° E visible
07 May 5.5 00:07:16 10° N 00:12:32 84° W 00:13:44 54° S visible
07 May 7.8 01:50:09 10° NW 01:52:23 13° WNW 01:54:13 11° W visible
07 May 5.7 23:33:47 10° N 23:38:57 58° E 23:40:25 42° SE visible
08 May 7.3 01:15:21 10° NNW 01:19:14 22° WNW 01:20:54 19° WSW visible
08 May 6.4 23:00:29 10° NNE 23:05:15 34° ENE 23:07:07 27° ESE visible
09 May 6.6 00:41:15 10° NNW 00:45:59 36° W 00:47:36 29° WSW visible
09 May 7.1 22:27:29 10° NNE 22:31:25 21° ENE 22:33:49 16° ESE visible
10 May 5.8 00:07:26 10° N 00:12:36 61° W 00:14:17 40° SSW visible
10 May 7.6 21:55:09 10° NE 21:57:27 13° ENE 21:59:43 10° E visible
10 May 5.5 23:33:50 10° N 23:39:05 80° E 23:40:59 41° SSE visible
